Regional Weather Roundup
Issued by NWS Charleston, SC

Current Version | Previous Version | Text Only | Print | Product List | Glossary Off
Versions: 1 2 3 4 5 6 7 8 9 10 11 12 13 14 15 16 17 18 19 20 21 22 23 24 25 26 27 28 29 30 31 32 33 34 35 36 37 38 39 40 41 42 43 44 45 46 47 48 49 50

000
ASUS42 KCHS 020613
RWRCHS

REGIONAL WEATHER ROUNDUP
NATIONAL WEATHER SERVICE CHARLESTON SC
200 AM EDT MON MAY 02 2016

NOTE: "FAIR" INDICATES FEW OR NO CLOUDS BELOW 12,000 FEET WITH NO
SIGNIFICANT WEATHER AND/OR OBSTRUCTIONS TO VISIBILITY.

NOT ALL STATIONS ARE QUALITY CONTROLLED. USE DATA WITH CAUTION...
ESPECIALLY DEWPOINT OBSERVATIONS.

SCZ027-030-031-034>040-042>050-020700-
...SOUTHEAST SOUTH CAROLINA...

CITY           SKY/WX    TMP DP  RH WIND       PRES   REMARKS
N CHARLESTON   CLOUDY    72  69  90 SW5       30.02F
6HR MIN TEMP:  71; 6HR MAX TEMP:  75; 6HR PCP: TRACE;

WATERFRONT PRK   N/A     74  72  93 S7        30.00F
MOUNT PLEASANT FAIR      73  72  94 S5        30.03S
JOHNS ISLAND   FAIR      73  72  94 S6        30.03S
PINOPOLIS        N/A     73  70  88 VRB2      29.95S
MONCKS CORNER  FOG       66  63  88 CALM      30.03S VSB 3/4
SUMMERVILLE    FAIR      70  70 100 CALM      30.04S FOG
BEAUFORT MCAS  PTCLDY    73  71  93 SW5       30.03R
6HR MIN TEMP:  73; 6HR MAX TEMP:  75; 6HR PCP:  0.01;

BEAUFORT ARPT  FAIR      73  72  94 S7        30.02S
HILTON HEAD IS CLOUDY    73  73 100 S8        30.04S
WALTERBORO     CLOUDY    72  72 100 S3        30.03F FOG
ALLENDALE      FAIR      66  66 100 CALM      30.03S

...SOUTHERN MIDLANDS AND PEE DEE...

CITY           SKY/WX    TMP DP  RH WIND       PRES   REMARKS
GEORGETOWN     FAIR      70  68  94 CALM      30.04S
KINGSTREE      FAIR      66  64  94 CALM      30.03S FOG
ORANGEBURG     CLOUDY    68  66  93 CALM      30.03S
6HR MIN TEMP:  67; 6HR MAX TEMP:  73;

BARNWELL       FAIR      70  70 100 CALM      30.03F
AIKEN          MOCLDY    64  63  94 S3        30.07R
MANNING        NOT AVBL
COLUMBIA       MOCLDY    70  66  87 S3        30.02S
6HR MIN TEMP:  70; 6HR MAX TEMP:  76;

SUMTER         CLOUDY    70  68  95 SW10      30.01S
6HR MIN TEMP:  68; 6HR MAX TEMP:  72;

FLORENCE       CLOUDY    67  65  93 CALM      30.03F
6HR MIN TEMP:  66; 6HR MAX TEMP:  70;

MYRTLE BEACH   CLOUDY    73  64  73 SW7       30.05F
N MYRTLE BEACH CLOUDY    70  68  93 SW6       30.04S
6HR MIN TEMP:  69; 6HR MAX TEMP:  72;


$$

GAZ063-065-086>088-099>101-113>116-118-119-134>141-150-020700-
...SOUTHEAST GEORGIA...

CITY           SKY/WX    TMP DP  RH WIND       PRES   REMARKS
SAVANNAH ARPT  PTCLDY    73  70  90 S7        30.03S
6HR MIN TEMP:  70; 6HR MAX TEMP:  73; 6HR PCP: TRACE;

HUNTER AAF     PTCLDY    74  74 100 S5        30.01R
6HR MIN TEMP:  73; 6HR MAX TEMP:  76;

FORT STEWART   PTCLDY    67  66  95 CALM      30.01R
6HR MIN TEMP:  67; 6HR MAX TEMP:  70; 6HR PCP:  0.21;

STATESBORO     CLEAR     67  67 100 CALM      30.03F
SYLVANIA       PTCLDY    67  67 100 CALM      30.04F
CLAXTON        FAIR      65  65 100 CALM      30.03S FOG

...CSRA...CENTRAL AND FAR SOUTHEAST GEORGIA...

CITY           SKY/WX    TMP DP  RH WIND       PRES   REMARKS
THOMSON        CLOUDY    73  68  85 S7        30.07S
AUGUSTA-BUSH   CLOUDY    68  66  93 S3        30.02R
6HR MIN TEMP:  67; 6HR MAX TEMP:  77;

AUGUSTA-DANIEL CLOUDY    71  64  78 S6        30.03S
SWAINSBORO     FAIR      66  64  94 CALM      30.04S
VIDALIA        CLEAR     68  64  88 CALM      30.03S
EASTMAN        FAIR      69  69 100 CALM      30.05F
HAZLEHURST     FAIR      72  67  86 S5        30.02S
ALMA           CLEAR     68  67  96 S3        30.03R
6HR MIN TEMP:  68; 6HR MAX TEMP:  74; 6HR PCP:  0.08;

WAYCROSS       CLEAR     69  69 100 S5        30.03S
JESUP          FAIR      73  72  94 CALM      30.03S
BAXLEY         FAIR      70  68  94 CALM      30.03S
BRUNSWICK      PTCLDY    70  68  94 S8        30.03F
SAINT SIMONS   CLEAR     74  72  93 S7        30.02F
6HR MIN TEMP:  72; 6HR MAX TEMP:  76; 6HR PCP: TRACE;


$$

SCZ027-028-034-036>038-045-046-048>050-GAZ119-141-020700-
...LAKE AND SUPPLEMENTAL COASTAL OBSERVATIONS...

STATION/POSITION TIME  TEMP    WIND        PRES    WAVE   SWELL
                       AIR SEA DIR/SP/G            HT/PER HT/PER/DIR
                 (UTC) (F)     (DEG/KT/KT) (MB)    (FT/S) (FT/S/D)
WINYAH BAY       NOT AVBL
LAKE MURRAY      0500   72     200/  8/  9 1015.9F
ACE BASIN NERRS  NOT AVBL
FORT PULASKI     0500   74 74  150/  4/  6 1017.1F
SAPELO ISLAND    0500   73     170/  4     1017.0S

$$

ANZ835-935-AMZ111-154-330-350-352-354-370-450-454-472-020700-
...C-MAN AND BUOY OBSERVATIONS...

STATION/POSITION TIME  TEMP    WIND        PRES    WAVE   SWELL
                       AIR SEA DIR/SP/G            HT/PER HT/PER/DIR
                 (UTC) (F)     (DEG/KT/KT) (MB)    (FT/S) (FT/S/D)
BUOY 41004       0550   75 73  180/ 14/ 14 1016.1F   3/11   2/11
BUOY 41008       NOT AVBL
FOLLY BEACH CMAN 0500   74     180/ 11/ 12 1017.0F
CAPERS NEARSHORE 0508   73 72  190/ 10/ 12 1016.5F
FRIPP NEARSHORE  0508   74 74  180/  8/ 10 1016.1F


STATION/POSITION TIME  TEMP    WIND        PRES    WAVE   SWELL
                       AIR SEA DIR/SP/G            HT/PER HT/PER/DIR
                 (UTC) (F)     (DEG/KT/KT) (MB)    (FT/S) (FT/S/D)
5E ST. MARYS GA  0521      74                N/A     3/11   2/ 80/11
FRYING PAN BUOY  0500   74 71  190/ 10/ 12 1017.1S
BUOY 41025       0550   74 73  210/ 14/ 16 1017.3F   6/10   3/ 90/10
CAPE LOOKOUT NC  0500   69     210/  4/  4 1017.3R
BUOY 41002       0550   72 74  150/ 14/ 16 1019.5F   4/ 8   3/ 30/ 8
BUOY 41010       0520   77 78  140/ 14/ 17 1018.2F
ST AUGUSTINE FL  0600   73 72  180/  7/  7 1017.5F


$$




USA.gov is the U.S. government's official web portal to all federal, state and local government web resources and services.